SCP
0 0 0 0 0 0 0 0 0 0 0 0 0 0 0 0 0 -0 -0 -0 -0 -0 0 0 0 0 0 0 0 -0 -0 -0 0 0 0 0 0 0 -0 -0 0 0 0
0 0 0 0 0 0 0 0 0 0 0 0 0 0 0 0 0 -0 -0 -0 -0 -0 0 0 0 0 0 0 0 0 -0 -0 -0 -0 -0 -0 0 0 0 0 0 0 0
0 0 0 0 0 0 0 0 0 0 0 0 0 0 0 0 -0 -0 -0 -0 -0 0 0 0 0 0 0 0 0 0 -0 -0 -0 -0 -0 -0 -0 0 0 0 0 0 0
0 0 0 0 0 0 0 0 0 0 0 0 0 0 0 0 -0 -0 -0 -0 -0 0 0 0 0 0 0 0 0 0 0 -0 -0 -0 -0 -0 -0 -0 -0 0 0 0 0
0 0 0 0 0 0 0 0 0 0 0 0 0 0 0 0 -0 -0 -0 -0 -0 0 0 0 0 0 0 0 0 0 0 -0 -0 -0 -0 -0 -0 -0 -0 -0 -0 0 0
0 0 0 0 0 0 0 0 0 0 0 0 0 0 0 0 0 0 0 0 0 0 0 0 0 0 0 0 0 0 0 -0 -0 -0 -0 -0 -0 -0 -0 -0 0 0 0
0 0 0 0 0 0 0 0 0 0 0 0 0 0 0 0 0 0 0 0 0 0 0 0 0 0 0 0 0 0 0 0 -0 -0 -0 -0 -0 -0 -0 -0 0 0 0
0 0 0 0 0 0 0 0 0 0 0 0 0 0 0 0 0 0 0 0 0 0 0 0 0 0 0 0 0 -0 -0 -0 -0 -0 -0 0 0 0 -0 -0 -0 0 0
0 0 0 0 0 0 0 0 0 0 0 0 0 0 0 0 0 0 0 0 0 0 0 0 0 0 0 0 0 -0 -0 -0 -0 -0 -0 0 0 0 0 -0 -0 -0 0
0 0 0 0 0 0 0 0 0 0 0 0 0 0 0 0 0 0 0 0 0 0 0 0 0 0 0 0 0 0 -0 -0 -0 -0 0 0 0 0 0 -0 -0 -0 0
0 0 0 0 0 0 0 0 0 0 0 0 0 0 0 0 0 0 0 0 0 0 0 0 0 0 0 0 0 0 0 -0 -0 0 0 0 0 0 -0 -0 -0 -0 0
0 0 0 0 0 0 0 0 0 0 0 0 0 0 0 0 0 0 0 0 0 0 0 0 0 0 0 0 0 0 -0 -0 -0 0 0 0 0 0 0 -0 -0 -0 0
0 0 0 0 0 0 0 0 0 0 0 0 0 0 0 0 0 0 0 0 0 0 0 0 0 0 0 0 0 -0 -0 -0 0 0 0 0 0 0 0 0 -0 -0 -0
0 0 0 0 0 0 0 0 0 0 0 0 0 0 0 0 0 0 0 0 0 0 0 0 0 0 0 0 -0 -0 -0 -0 0 0 0 0 0 0 0 0 0 -0 -0
0 0 0 0 0 0 0 0 0 0 0 0 0 0 0 0 0 0 0 0 0 0 0 0 0 0 0 0 -0 -0 -0 -0 0 0 0 0 0 0 0 0 0 -0 -0
1 1 1 0 0 0 0 0 0 0 0 0 0 0 0 0 0 0 0 0 0 0 0 0 0 0 -0 -0 -0 -0 -0 -0 0 0 0 0 0 0 0 0 0 -0 -0
1 1 1 1 0 0 0 0 0 0 0 0 0 0 0 0 0 0 0 0 0 0 0 0 0 0 -0 -0 -0 -0 -0 -0 -0 0 0 0 0 0 0 0 0 0 0
1 1 1 0 0 0 0 0 0 0 0 0 0 0 0 0 0 0 0 0 0 0 0 0 0 0 -0 -0 -0 -0 0 0 -0 -0 -0 -0 -0 0 0 0 0 0 0
1 1 1 0 1 1 0 0 0 0 0 0 0 0 0 0 0 0 0 0 0 0 0 0 0 0 0 -0 -0 0 0 0 0 0 -0 -0 -0 0 0 0 0 0 0
1 1 1 1 1 1 1 0 0 0 0 0 0 0 0 0 0 0 0 0 0 0 0 0 0 0 0 0 0 0 0 0 0 0 0 0 0 0 0 0 0 0 0
1 1 1 1 1 1 1 1 1 0 0 0 0 0 0 0 0 0 0 0 0 0 0 0 0 0 0 0 0 0 0 0 0 0 0 0 0 0 0 0 0 0 0
1 1 1 1 1 1 1 1 1 0 0 0 0 0 0 0 0 0 0 0 0 0 0 0 0 0 0 0 0 0 0 0 0 0 0 0 0 0 0 0 0 0 0
1 1 1 1 1 1 1 1 1 1 0 0 0 0 0 0 0 0 0 0 0 0 0 0 0 0 0 0 0 0 0 0 0 0 0 0 0 0 0 0 0 0 0
1 1 1 1 1 1 1 1 1 1 0 0 0 0 0 0 0 0 0 0 0 0 0 0 0 0 0 0 0 0 0 0 0 0 0 0 0 0 0 0 0 0 0
1 1 1 1 1 1 1 1 1 1 1 1 0 0 0 0 0 0 0 0 0 0 0 0 0 0 0 0 0 0 0 0 0 -0 -0 -0 0 0 0 0 0 0 0
1 0 0 1 1 1 1 1 1 1 1 1 0 0 0 0 0 0 0 0 0 0 0 0 0 0 0 0 0 0 0 0 0 0 -0 -0 -0 0 0 0 0 0 0
Wind_Speed
13 16 16 13 13 13 14 14 14 15 15 15 15 14 13 13 13 13 13 13 12 13 13 14 14 15 15 15 15 15 15 15 15 15 16 16 15 15 14 14 14 15 16
16 17 16 14 14 13 14 14 14 15 15 15 14 14 13 13 12 12 12 13 13 13 14 14 14 15 15 15 14 14 14 14 14 15 15 15 15 14 12 12 14 13 15
18 18 17 14 14 14 14 14 15 15 14 14 14 13 13 12 12 12 12 12 13 13 14 14 14 14 14 14 14 14 14 14 13 12 11 12 14 13 14 15 16 16 15
18 17 16 16 14 14 14 14 14 14 14 14 13 13 12 12 12 12 12 12 12 13 13 14 14 14 14 14 14 14 14 13 10 7 8 11 13 14 14 15 15 15 15
16 16 17 17 15 14 14 14 14 14 14 13 13 13 12 12 12 12 12 12 12 13 13 13 14 13 13 13 13 13 12 11 6 5 10 11 12 13 13 14 14 14 14
16 16 18 16 16 15 14 14 13 13 13 13 12 12 12 12 11 12 12 12 12 13 13 13 13 13 12 12 12 12 11 9 7 10 9 10 12 12 13 13 13 13 13
16 16 18 16 16 15 14 14 13 13 12 12 12 11 11 11 11 12 12 12 12 12 12 12 12 11 11 11 11 11 9 4 6 9 8 10 12 11 12 12 12 13 13
16 16 17 16 15 15 14 13 13 12 12 12 12 11 11 11 11 11 11 12 12 12 12 11 11 10 10 10 10 10 8 5 8 9 9 11 11 10 12 11 11 12 12
15 15 15 15 15 14 14 13 13 12 12 11 11 11 11 12 11 11 11 11 11 11 11 10 10 9 9 9 10 9 6 2 5 7 9 9 10 10 11 11 11 11 11
13 14 14 14 14 14 14 13 13 12 12 11 11 11 12 12 11 11 11 11 11 10 10 9 9 8 8 9 9 9 7 6 6 8 7 10 10 10 10 10 10 10 10
12 12 13 13 13 12 12 14 13 13 12 12 11 12 11 9 10 10 11 11 10 9 9 8 8 7 8 10 9 8 8 4 6 5 7 12 9 9 9 9 9 9 10
14 13 11 12 12 11 10 11 9 10 10 9 8 10 7 6 5 7 12 9 9 9 9 8 7 8 8 8 9 9 4 4 5 6 9 10 9 9 9 8 8 9 9
14 13 12 11 11 11 8 8 6 5 7 7 8 8 6 5 5 6 6 8 8 9 7 8 8 5 3 4 4 4 3 3 3 5 10 10 8 8 8 8 8 8 8
14 14 12 12 11 9 8 7 6 6 6 6 7 8 7 4 4 4 3 5 5 4 3 4 3 3 3 4 3 3 5 3 3 4 8 9 7 7 7 7 7 7 8
13 14 12 12 11 10 8 7 7 6 7 7 7 7 6 5 5 5 3 3 4 4 5 3 3 4 3 4 4 4 3 3 4 4 7 9 7 7 7 7 7 7 7
13 13 12 12 12 11 9 7 6 6 6 6 7 8 7 5 5 5 5 4 3 3 3 3 4 4 3 3 3 4 4 4 4 3 5 8 8 7 6 7 7 7 7
13 12 12 12 12 12 11 10 7 6 7 6 6 7 7 6 6 5 5 5 4 4 4 3 3 3 4 4 3 3 3 3 4 3 3 4 7 9 7 7 7 6 7
12 12 12 11 12 12 10 9 6 6 7 6 6 7 8 7 7 6 5 5 4 4 4 4 4 3 3 3 3 3 3 3 4 4 4 4 3 5 8 8 7 7 7
12 12 12 11 12 12 10 8 7 6 6 6 6 6 7 8 8 7 5 4 5 4 4 4 4 3 4 3 4 4 3 3 4 4 4 4 5 4 4 8 8 7 8
11 11 12 11 11 10 8 7 6 7 7 7 6 6 8 7 8 7 5 6 6 5 4 3 3 3 3 4 3 3 3 2 4 4 5 5 5 5 5 5 7 8 10
12 12 13 12 11 10 8 8 8 8 8 7 7 8 9 8 9 7 6 6 6 5 5 6 5 6 5 3 3 4 4 5 4 4 4 4 5 5 4 5 5 4 6
12 12 12 12 11 11 9 7 6 7 7 7 6 7 8 9 9 8 8 6 7 5 6 6 5 4 4 4 4 3 4 5 5 5 5 5 5 5 6 7 5 5 5
12 12 10 11 11 11 10 8 7 6 6 7 7 7 9 10 10 9 8 8 7 7 7 7 7 7 5 5 4 4 3 2 4 5 5 5 5 4 5 5 6 6 7
12 11 11 11 11 11 11 10 12 9 9 9 8 7 9 10 10 9 9 9 8 7 6 8 8 6 6 5 4 4 4 3 3 2 5 6 6 6 5 5 6 7 7
10 10 10 10 10 11 11 11 11 10 8 7 7 8 8 8 10 10 9 8 8 7 7 7 6 7 6 6 5 4 4 3 5 4 2 3 5 5 5 6 5 5 6
9 9 9 10 10 10 11 11 11 11 10 9 10 9 8 7 8 10 10 9 9 7 7 7 7 8 7 6 5 5 4 4 5 4 4 4 4 4 4 4 5 5 5
Wind_Direction
146 135 136 138 135 131 130 130 130 131 130 128 126 124 120 117 113 109 107 104 101 101 102 103 104 104 104 104 103 102 102 101 100 99 99 98 97 97 101 108 110 101 102
140 134 138 138 135 133 130 130 129 130 131 129 127 124 121 118 116 113 109 106 104 102 102 103 104 103 103 103 104 104 104 104 104 105 108 103 97 95 92 88 86 99 105
139 135 143 138 135 133 129 129 129 130 130 130 128 126 123 121 119 117 113 109 107 105 105 104 104 104 103 103 105 106 105 106 108 118 130 111 102 96 96 95 98 103 103
140 141 144 138 138 135 132 131 131 131 130 130 129 127 126 123 121 119 115 111 110 108 107 108 107 106 105 105 106 105 106 107 117 154 118 104 104 99 99 101 103 104 105
139 138 135 145 142 139 136 134 134 133 133 132 131 130 128 126 124 120 116 116 114 112 112 111 110 109 108 108 108 108 110 114 139 128 95 97 99 102 102 104 105 105 107
142 143 139 149 145 142 140 137 136 136 135 133 132 130 129 127 125 119 117 117 115 114 113 112 112 111 110 111 112 113 116 139 169 101 105 105 104 107 107 105 105 106 107
148 143 142 150 147 145 144 142 138 137 135 134 133 131 128 125 123 120 118 116 114 115 113 113 113 113 115 115 114 116 123 166 109 103 103 98 100 109 108 106 107 107 108
149 145 139 150 149 148 147 144 141 140 138 135 133 131 127 123 121 120 120 118 115 113 114 114 112 112 115 117 118 121 138 196 117 108 104 101 105 112 110 110 110 110 110
152 145 148 154 154 153 151 148 145 143 139 136 134 131 129 126 123 121 120 120 118 116 117 116 115 114 116 119 122 126 131 275 120 115 113 108 115 117 116 115 115 113 112
156 153 155 159 157 159 155 152 150 147 144 141 139 136 132 131 129 130 134 123 122 120 118 117 115 115 119 122 127 132 148 213 125 122 113 111 123 122 120 119 120 119 118
163 160 163 161 161 163 157 151 158 154 151 151 148 144 156 155 144 155 118 125 126 124 121 120 119 124 136 136 136 148 183 177 121 106 98 112 132 130 127 125 126 127 125
170 170 167 165 164 167 158 156 166 164 159 172 152 159 163 137 144 125 119 131 131 129 130 126 132 163 196 150 148 183 183 144 137 123 109 126 139 139 137 136 134 132 130
172 173 170 169 169 173 161 165 165 159 157 166 157 160 150 151 149 142 148 148 150 161 157 148 179 178 150 113 155 170 130 144 134 119 120 140 148 149 147 145 146 143 141
176 177 176 170 174 177 172 167 167 166 166 167 159 173 159 163 155 147 157 149 160 159 149 167 161 136 124 134 151 144 150 159 130 109 123 145 152 156 155 153 154 154 154
178 180 177 176 176 176 175 181 173 173 171 161 164 173 172 166 165 155 147 155 170 152 164 172 156 141 151 153 154 150 147 132 128 136 128 149 158 163 165 164 165 163 165
182 181 177 182 182 181 180 184 175 177 173 169 172 168 182 174 163 164 164 169 170 170 161 170 157 162 170 146 151 142 164 148 131 155 139 151 167 174 177 176 178 180 181
182 180 179 185 188 188 186 186 182 181 177 178 169 168 182 185 170 181 171 179 172 165 161 185 172 179 177 169 155 154 159 158 145 159 155 159 163 172 180 185 189 195 197
183 182 184 188 189 190 188 188 183 187 181 179 173 173 185 187 183 193 186 182 168 182 183 175 199 189 178 177 158 166 148 154 161 173 176 176 175 166 171 183 197 205 208
185 184 187 191 189 188 185 184 187 186 188 185 183 181 181 190 189 199 194 170 185 190 189 198 175 200 184 184 171 171 180 178 174 186 184 187 180 187 172 168 188 205 212
187 186 188 188 186 185 184 184 188 191 193 194 189 186 185 191 194 200 193 183 200 194 188 195 175 198 200 197 205 160 189 191 200 182 203 192 191 196 198 180 188 194 203
186 187 188 189 185 183 185 189 188 190 192 192 193 188 191 196 194 202 206 183 208 199 195 195 195 186 198 190 194 187 187 203 200 195 212 211 199 199 199 197 217 210 186
189 189 189 192 189 189 189 193 195 194 194 193 194 187 197 200 201 201 208 204 204 198 198 202 202 211 195 191 215 211 203 191 206 206 202 211 215 202 201 205 207 215 238
190 190 190 194 197 196 190 188 186 187 194 192 193 192 201 203 205 214 204 213 208 210 199 203 202 211 209 203 224 241 245 222 187 180 205 213 217 222 222 208 208 207 221
189 187 190 191 197 196 191 194 192 192 195 195 192 191 194 203 206 208 209 211 214 216 201 209 207 215 219 214 206 240 276 330 280 194 192 191 205 220 233 233 217 208 216
186 187 192 192 195 194 195 196 197 200 200 192 190 191 197 201 208 208 208 210 212 216 209 219 207 221 218 227 222 213 217 225 249 263 233 203 197 203 208 222 229 228 218
183 187 191 196 197 196 198 199 201 203 200 195 194 192 196 199 206 208 208 208 211 213 208 214 215 214 224 230 237 232 223 226 232 241 242 234 224 206 201 219 228 224 222